Theta_e
324 325 326 326 328 326 324 323 320 320 323 320 317 316 320 328 317 309 331 351 333 333 347 342 339 341 341 350 363 372 376 380 380 365 353 351 347 345 348 349 350 353 353 354 355 353 353 351 350 352 354 355 355 355 355 356 358 360 361 362 362 363 363 362 362 361 361 360 360 360 360 360 360 359 359 358 357 356 356 354 354 353 352 352 351 350 349
325 323 326 326 324 325 324 324 324 322 322 321 319 320 324 326 321 320 340 352 344 345 348 340 340 341 343 352 358 362 372 379 383 376 361 351 348 347 347 349 351 351 353 354 354 354 355 353 351 351 353 355 356 355 356 356 358 359 361 362 363 362 363 362 362 362 361 360 360 360 360 359 360 359 359 358 357 356 356 355 353 353 352 351 351 350 349
325 323 325 326 324 324 322 323 326 324 323 323 320 322 324 324 323 325 334 338 338 348 359 354 344 348 356 353 352 365 378 373 375 379 366 352 351 352 350 350 350 350 352 355 354 355 357 354 351 351 352 354 355 356 356 356 357 359 360 361 362 362 362 362 362 362 361 361 360 360 360 359 359 359 359 358 357 357 356 355 354 353 352 351 350 350 349
326 324 323 324 324 324 319 320 325 324 321 321 321 323 325 323 324 326 325 325 328 341 356 356 342 347 358 355 353 364 370 365 367 369 361 354 355 357 358 357 356 354 355 356 356 356 354 352 352 352 353 354 354 355 356 356 357 357 359 361 361 362 362 362 362 362 361 361 361 360 360 359 359 359 359 358 358 357 356 355 354 353 352 351 351 350 349
328 326 324 322 320 319 315 317 324 326 325 325 323 325 328 328 331 329 322 326 339 345 347 348 342 338 349 358 360 359 359 364 367 364 358 356 355 358 361 361 360 357 355 356 357 355 352 351 352 353 354 354 354 355 355 356 356 356 358 360 360 361 362 362 362 361 360 361 361 360 360 359 359 359 359 358 357 356 356 355 354 353 352 351 351 351 350
327 326 326 324 317 313 316 323 328 327 327 328 324 325 329 327 327 331 328 334 349 350 341 343 343 338 342 352 354 350 351 357 362 360 357 354 354 355 357 358 357 355 354 355 355 353 351 351 352 354 355 354 355 355 355 356 356 355 356 357 359 360 361 361 362 361 361 361 360 360 360 360 359 359 359 358 357 356 355 355 353 353 353 352 352 351 350
329 328 327 322 316 316 324 332 332 329 328 331 333 337 344 341 338 345 350 346 348 350 345 345 349 345 341 345 351 351 349 348 349 352 352 352 353 353 354 356 356 354 356 357 356 353 351 351 353 354 355 355 355 355 355 355 355 355 356 356 357 359 359 361 361 361 361 361 360 360 360 360 360 359 359 358 357 356 355 354 353 353 353 352 352 352 351
331 330 326 323 323 327 335 335 329 331 332 330 337 343 350 353 352 354 358 355 354 355 350 349 352 346 342 348 355 355 354 351 343 340 344 347 350 351 353 355 356 356 356 354 353 353 351 352 354 353 355 356 355 356 356 355 355 355 355 356 357 358 359 360 361 361 361 361 360 360 360 360 360 359 359 359 358 357 355 354 353 353 352 353 353 352 352
333 329 326 328 326 328 335 337 333 337 337 331 338 345 349 355 356 353 352 357 360 357 354 355 351 342 347 365 364 355 356 356 346 338 337 339 346 352 353 352 352 350 348 348 350 351 350 352 354 353 354 356 356 356 356 356 356 355 354 355 356 357 358 359 360 361 361 361 360 360 360 360 360 359 360 359 358 358 355 354 354 353 352 353 353 353 353
336 331 330 330 323 322 331 337 338 341 342 341 345 352 355 358 358 356 358 363 364 363 367 371 360 350 359 375 369 359 357 355 351 347 342 339 344 350 351 351 351 347 345 346 347 348 350 351 352 354 355 355 356 357 356 356 356 355 355 355 355 356 357 358 359 360 360 360 360 360 359 360 360 359 359 359 359 358 356 355 355 354 353 353 353 352 353
336 333 332 328 323 328 337 340 341 339 338 343 350 354 356 361 360 358 360 364 366 367 372 379 378 375 377 373 366 362 358 354 354 357 356 350 347 347 347 349 351 348 346 347 346 346 349 350 352 354 354 355 356 356 356 357 356 355 355 355 355 356 356 357 358 359 360 361 360 360 360 360 359 360 360 359 359 358 357 356 355 354 354 353 352 353 353
336 335 335 332 330 337 342 339 339 338 338 341 343 342 349 361 361 358 359 363 364 361 361 371 380 384 382 373 365 359 355 355 356 357 360 359 355 353 351 351 353 349 347 351 354 352 351 351 352 353 353 354 355 355 355 356 355 355 356 355 355 356 355 356 358 358 359 360 360 360 360 360 360 360 360 359 359 358 357 357 356 355 354 353 353 353 352
338 336 339 341 339 341 341 338 339 341 340 334 332 336 352 362 359 356 357 358 359 357 358 367 371 368 366 363 358 353 353 358 360 354 353 354 353 352 351 353 356 354 349 350 355 356 356 357 357 355 355 354 354 354 356 355 355 356 356 356 356 356 355 355 356 357 358 359 359 360 360 360 361 360 360 360 359 358 358 357 356 355 354 353 352 351 350
340 337 341 345 344 341 339 336 339 342 336 332 337 348 360 359 355 357 357 355 357 357 357 361 361 357 354 353 352 351 351 355 356 351 349 353 355 352 349 350 353 353 353 354 355 358 359 360 361 361 359 356 354 353 354 353 354 355 355 355 355 355 355 355 355 356 357 358 359 360 360 361 361 361 361 360 359 358 357 356 356 355 353 352 351 349 348
342 338 340 346 347 343 338 337 343 348 343 343 349 355 356 352 352 355 354 354 355 354 353 354 352 350 349 348 348 349 349 350 351 349 348 352 354 351 348 348 348 350 353 354 351 354 359 360 362 363 362 360 358 357 357 355 354 354 354 354 355 354 354 354 354 355 356 356 359 360 360 362 362 362 361 360 359 358 356 355 354 352 351 350 349 348 346
343 340 340 343 343 341 337 337 342 345 345 348 351 351 350 350 349 348 350 351 349 348 349 349 347 346 347 346 346 347 347 348 348 349 348 348 349 348 347 346 345 346 350 352 351 354 359 360 361 362 362 360 357 357 360 360 356 355 354 352 352 352 352 353 353 354 354 356 359 360 362 363 362 361 361 359 357 355 353 351 349 347 347 347 346 346 346
342 341 341 343 343 341 338 337 339 340 340 343 345 344 346 346 344 344 346 346 344 344 344 344 344 345 345 344 344 344 344 345 345 347 348 347 347 348 346 345 344 345 347 349 350 352 355 358 360 361 361 359 353 351 358 363 361 358 356 354 354 355 355 356 356 356 357 359 361 362 363 363 362 362 360 356 353 352 350 347 346 346 346 345 344 345 345
340 339 340 341 341 339 336 336 337 337 336 337 338 340 341 341 341 341 341 341 341 341 340 340 343 343 341 342 342 341 342 343 343 345 346 346 345 346 346 346 345 344 345 347 350 351 351 350 353 357 360 360 358 356 359 363 363 361 359 358 359 359 360 360 360 360 360 361 362 363 362 362 361 358 355 353 353 351 347 344 345 346 345 343 343 344 344
339 340 340 341 340 337 335 335 336 335 334 333 332 335 337 337 337 337 337 337 338 336 337 339 339 339 339 340 340 340 340 342 343 345 347 346 345 344 345 346 346 345 346 348 350 351 349 349 349 350 354 356 357 357 357 359 358 357 357 359 360 360 361 361 360 360 360 360 359 358 357 356 356 355 355 355 352 347 344 345 345 345 342 342 343 343 343
339 341 339 338 340 337 332 333 335 335 335 332 329 330 332 332 332 332 332 333 334 334 335 336 336 337 338 338 338 339 339 340 342 345 347 347 345 343 343 345 346 346 347 349 351 350 348 348 348 349 350 352 353 354 356 357 357 357 356 356 357 357 357 358 358 357 356 356 354 352 351 354 355 355 354 352 348 345 347 347 344 342 341 342 342 342 343
342 344 338 337 342 341 334 332 334 335 335 333 328 328 329 329 329 329 329 330 331 332 333 334 335 336 337 337 338 337 337 339 341 343 346 346 345 344 344 345 346 346 347 348 350 350 349 347 348 348 349 350 352 353 354 355 356 356 354 353 353 352 352 353 354 354 354 353 351 348 348 350 350 349 349 348 346 346 347 346 344 343 342 342 342 342 342
344 343 337 336 342 342 336 334 334 334 335 335 332 329 329 329 328 328 328 329 329 330 331 332 334 335 336 337 336 336 337 339 340 341 344 344 343 343 344 345 345 346 348 348 348 348 348 347 347 347 347 347 349 350 350 352 353 352 350 350 351 350 349 348 347 348 348 346 344 342 341 339 339 338 340 343 344 344 344 345 345 346 345 343 342 342 342
343 339 335 335 339 339 336 335 335 335 335 336 335 332 330 329 328 328 328 329 330 330 330 330 332 334 336 335 335 335 336 337 338 338 338 340 342 343 343 344 345 345 346 348 348 348 348 347 345 346 346 347 347 347 347 349 350 350 349 349 349 348 347 345 344 344 342 339 338 336 334 334 333 332 333 337 340 343 344 345 344 344 344 344 343 342 342
339 336 335 336 338 338 336 335 335 336 336 336 336 334 332 329 328 327 329 330 331 331 331 330 330 332 334 334 334 335 336 337 337 336 335 336 339 341 341 342 343 344 344 345 345 346 346 346 345 345 344 345 345 346 346 345 346 347 347 348 348 348 346 344 343 342 339 337 336 335 333 333 334 334 334 333 334 337 342 343 343 342 342 341 341 341 341
335 335 334 334 336 336 335 334 334 335 335 336 336 335 334 331 329 329 329 331 331 331 330 331 330 329 331 333 334 335 336 336 335 335 335 335 337 339 341 342 342 343 344 343 343 342 341 343 346 346 344 343 342 344 345 344 343 345 346 347 347 347 345 344 342 340 339 337 335 334 334 334 335 336 336 332 328 329 333 337 339 340 339 338 338 338 339
331 331 331 333 335 335 335 336 334 332 333 334 335 335 334 333 331 330 329 330 331 331 332 333 331 329 329 331 333 335 336 335 334 333 333 334 334 337 340 341 341 342 344 343 343 341 340 343 348 350 349 345 341 341 343 344 345 347 347 347 347 347 345 343 341 339 338 337 335 335 335 335 335 335 333 331 329 328 329 330 332 334 336 336 336 336 336
330 330 331 334 335 334 335 336 334 331 331 332 333 333 332 330 328 328 328 328 328 329 330 331 331 331 330 329 331 333 334 334 333 332 332 332 333 334 337 339 340 341 342 343 343 343 342 344 346 347 349 348 345 344 346 347 348 350 349 348 349 347 345 342 340 338 337 337 337 336 336 335 334 332 330 330 331 331 331 330 329 330 331 332 333 334 334
331 332 333 334 334 333 332 332 331 331 331 331 332 332 331 329 328 328 329 330 329 329 329 328 329 333 335 332 331 333 334 333 334 334 333 332 331 331 334 338 340 340 340 341 342 342 343 343 343 343 345 348 349 349 348 348 349 351 350 349 350 348 345 343 341 339 338 337 336 335 335 333 332 330 330 331 332 332 332 331 329 328 328 329 331 332 333
330 330 331 331 331 331 330 330 330 331 331 331 331 331 330 329 329 330 330 331 331 331 331 330 329 331 333 332 332 334 336 335 335 334 333 332 331 330 332 335 337 338 339 339 340 340 341 342 343 343 344 346 348 350 348 346 347 349 350 350 349 348 346 344 342 340 339 338 337 336 334 333 332 331 331 331 331 331 330 329 329 328 327 328 330 331 332
329 328 328 328 328 329 329 329 330 330 330 330 330 330 330 329 329 330 331 331 331 332 333 333 332 331 331 332 333 334 334 334 333 330 329 331 331 330 331 334 337 338 339 339 340 340 340 340 341 342 342 344 346 347 348 346 345 347 349 350 349 347 346 345 343 342 340 339 338 337 335 334 332 331 331 331 331 331 329 329 329 329 328 328 329 330 331
328 328 327 328 328 328 329 330 330 330 331 330 329 330 330 330 330 332 332 332 333 333 333 334 334 333 332 332 332 332 332 331 330 328 327 328 329 331 334 336 338 338 339 339 339 338 338 338 339 339 341 343 344 345 346 345 343 343 346 347 347 346 346 345 344 342 341 339 338 337 336 335 333 332 332 332 331 330 329 328 328 328 327 326 328 329 330
328 329 329 329 330 330 330 330 330 331 331 331 330 330 330 331 331 333 333 333 333 334 335 335 335 333 331 330 331 333 333 333 333 332 328 326 328 333 336 336 337 338 338 338 338 337 337 338 338 339 339 341 341 341 342 343 342 341 341 342 343 344 345 345 344 343 342 341 339 338 337 336 335 333 333 333 332 331 329 327 326 325 326 327 328 329 330
328 330 329 329 330 331 331 330 331 331 331 331 331 331 330 331 332 333 333 334 334 335 337 336 333 329 330 331 332 334 334 334 335 335 333 331 332 335 337 337 337 338 338 337 337 338 337 338 339 339 339 339 340 339 340 341 341 340 340 340 340 341 343 343 342 341 341 340 339 339 338 337 335 334 334 334 333 331 330 328 326 325 326 328 329 330 329
327 328 328 328 329 331 332 331 331 331 330 329 329 329 330 332 333 333 334 334 334 334 334 332 330 328 330 332 333 333 334 335 336 336 335 334 335 336 335 334 335 337 338 338 337 336 335 336 337 338 337 338 339 338 337 338 339 339 338 337 337 338 340 340 340 340 339 339 339 339 338 337 336 336 335 334 333 332 330 329 328 327 326 326 328 329 329
326 326 327 327 328 330 331 331 331 331 331 329 328 329 330 332 332 332 333 333 332 330 328 328 329 329 330 331 332 333 334 334 335 334 333 333 334 334 332 331 333 335 337 337 337 335 334 333 335 336 335 335 337 337 337 338 338 337 336 336 336 337 338 338 337 337 336 336 337 338 338 338 337 336 336 335 334 333 332 331 329 328 326 325 325 327 327
326 327 327 327 328 329 330 330 331 331 331 331 330 329 330 330 330 329 330 329 329 328 328 328 329 330 330 331 332 332 333 332 332 332 332 331 332 332 332 333 334 335 335 335 335 334 333 333 334 335 334 334 335 336 336 337 337 336 335 335 335 335 335 336 336 335 335 335 336 336 337 337 337 336 336 336 335 333 332 330 329 327 326 325 325 325 326
326 326 326 327 327 328 329 329 329 330 330 331 330 329 329 329 328 328 328 328 328 328 329 329 329 329 330 330 330 331 332 332 331 331 330 330 331 331 332 332 333 334 335 335 334 332 332 333 334 333 333 332 332 332 333 335 335 335 335 334 333 334 335 336 335 334 333 334 334 334 335 336 335 335 336 335 334 332 331 329 328 327 326 325 325 324 324
325 325 325 325 326 326 326 326 326 326 328 328 328 327 327 327 327 327 328 328 328 328 328 329 329 329 329 329 329 330 330 330 330 330 330 330 330 331 331 331 332 333 334 334 333 330 330 331 332 331 330 330 329 329 330 332 333 333 333 333 333 333 333 333 333 333 333 332 332 332 333 333 333 333 334 334 333 332 331 330 329 328 327 326 326 324 323
324 325 324 324 325 325 325 324 324 324 325 327 327 326 326 326 327 327 327 327 328 328 328 328 329 329 328 328 328 328 329 329 329 329 328 329 329 330 330 330 330 330 331 332 332 330 329 330 330 330 330 330 330 329 329 329 330 330 331 331 332 332 332 332 332 332 332 332 331 331 331 331 331 331 332 332 333 332 331 331 330 329 328 328 327 325 323
325 325 325 325 325 325 325 325 324 324 323 324 325 325 325 325 326 326 326 327 327 327 327 327 327 328 327 327 326 326 327 328 328 327 328 328 328 328 328 328 327 326 326 328 328 328 327 328 329 329 329 329 330 330 329 329 328 328 328 329 330 331 331 332 331 330 330 331 331 330 330 329 329 330 331 332 332 332 332 331 331 330 329 328 327 325 324
325 325 325 325 325 325 325 324 324 323 323 323 323 323 324 325 326 326 326 326 327 327 327 327 327 326 326 326 326 326 325 326 326 326 327 327 326 326 328 328 325 322 321 323 323 323 323 324 326 328 329 329 329 330 329 329 328 327 327 327 328 328 328 329 328 328 328 328 329 330 330 329 328 329 329 331 331 331 331 331 331 330 330 329 328 327 326
325 326 326 327 327 325 323 323 323 323 323 323 322 322 322 323 324 325 325 325 325 326 327 327 327 326 326 326 325 325 324 324 323 324 325 325 324 325 328 328 323 317 317 318 318 318 318 318 319 323 326 328 329 330 329 328 328 328 327 327 327 327 328 327 327 327 327 327 327 328 329 328 328 328 328 328 329 329 330 331 331 331 330 329 329 328 328
326 326 327 328 327 324 322 322 323 324 323 323 322 322 321 322 322 323 324 324 324 324 325 325 326 325 325 325 325 324 324 323 322 320 320 320 321 323 325 325 321 316 315 315 315 315 315 315 315 317 319 322 324 325 326 327 328 328 327 326 326 327 327 327 327 327 327 327 327 327 327 328 328 327 327 327 328 328 329 330 330 329 329 328 328 328 328
323 323 324 325 325 323 321 321 321 322 323 322 321 320 320 321 322 322 323 323 323 322 322 322 323 324 323 323 322 322 322 322 321 320 320 320 320 321 322 323 322 319 317 316 315 316 316 315 315 315 317 319 320 320 321 324 325 326 326 327 328 327 327 327 327 327 326 326 327 327 327 327 327 327 327 327 327 327 327 328 328 328 328 328 327 328 328
321 320 321 321 321 320 319 319 319 319 319 319 318 318 318 318 319 320 319 320 320 319 319 319 319 320 319 319 318 318 318 319 319 320 321 322 323 322 322 322 323 322 320 318 316 316 316 317 317 318 319 319 319 319 319 320 320 321 322 324 326 325 324 325 326 326 327 327 327 328 328 327 327 327 327 326 326 326 326 326 326 327 326 327 327 327 327
317 317 317 318 318 318 318 317 317 317 317 317 318 318 317 316 317 317 317 317 317 317 317 317 318 318 317 317 316 315 316 316 317 318 318 320 321 321 321 321 322 323 322 321 319 318 318 318 319 320 320 319 319 319 319 319 319 319 319 319 320 319 319 319 321 323 325 326 327 327 327 326 326 326 325 325 325 325 324 324 325 325 325 325 325 325 325
313 313 313 313 315 315 316 316 316 316 316 317 318 318 317 316 316 316 315 315 316 316 316 316 316 317 317 317 317 316 316 316 316 316 317 317 317 319 319 319 319 320 322 322 321 320 319 319 319 319 319 319 319 319 319 319 319 319 318 318 318 317 317 317 318 318 320 323 325 326 326 325 324 324 324 324 324 324 323 323 323 324 324 323 322 322 322
311 310 310 310 311 312 312 313 314 315 316 317 317 316 316 315 316 316 315 315 315 314 314 314 315 315 315 316 315 315 315 316 316 316 316 315 316 316 317 317 316 317 318 318 318 318 319 319 319 319 319 319 319 319 319 318 318 318 318 318 318 317 317 317 316 317 317 319 321 322 323 322 321 321 321 321 320 320 320 320 320 321 321 320 318 318 317
310 309 309 309 310 310 311 311 311 312 313 314 314 313 313 313 313 315 316 316 315 314 314 313 314 314 313 313 312 312 313 313 314 314 314 314 313 313 314 314 314 314 314 314 314 314 315 316 316 317 318 318 318 318 318 318 318 318 318 318 318 318 317 317 317 317 316 317 317 317 317 317 317 317 317 317 316 316 316 317 317 318 317 316 315 315 315
309 309 309 309 309 309 310 310 310 310 311 312 312 311 311 310 311 313 315 316 315 314 313 312 312 312 312 311 310 310 309 309 310 310 310 310 310 311 311 311 311 311 310 310 310 310 311 312 312 313 314 315 316 317 318 318 318 318 318 318 318 318 317 318 317 317 317 317 316 316 316 316 316 316 316 316 316 316 315 315 315 315 315 315 315 315 315
308 308 308 308 309 308 309 309 309 310 310 310 310 310 309 309 310 312 315 315 314 313 313 312 311 310 310 309 309 309 308 308 307 307 307 307 307 308 308 309 309 308 308 308 308 308 308 308 309 310 310 311 312 314 315 316 317 316 316 317 317 318 318 318 318 318 317 317 317 316 316 316 316 315 315 315 315 315 315 315 315 315 315 314 314 314 314
308 307 307 307 307 308 308 308 308 309 310 310 310 309 308 308 308 310 312 314 314 313 313 313 312 310 309 308 307 307 307 306 306 306 306 305 305 305 305 306 305 305 305 306 306 307 307 307 307 307 307 308 308 310 311 313 314 314 314 314 315 316 317 317 318 317 317 317 317 317 317 317 316 316 316 315 315 315 315 315 314 314 314 314 314 314 313
Wind_Speed
18 19 17 16 13 9 11 16 17 17 19 21 20 17 12 11 9 13 8 9 9 7 7 9 10 10 9 6 8 8 5 6 9 10 11 12 13 15 16 16 16 16 16 16 17 17 17 20 23 26 28 31 33 34 35 37 37 39 40 40 40 40 40 41 43 44 44 43 43 43 42 41 42 42 42 41 40 38 38 39 39 39 40 40 40 39 39
15 19 21 20 18 13 10 12 15 17 19 22 22 19 15 13 13 11 8 10 11 7 8 11 9 9 9 5 6 6 4 5 8 10 12 14 15 16 15 16 16 17 18 18 17 17 16 17 20 23 25 28 31 33 34 36 38 40 41 40 40 39 41 43 44 43 42 42 42 41 41 42 42 42 40 39 38 37 37 38 37 36 36 37 37 38 39
12 15 21 21 20 18 14 11 13 15 17 19 20 19 15 12 11 8 9 9 10 6 6 9 9 8 6 5 6 8 8 7 7 9 11 12 13 13 12 13 14 15 16 15 15 17 17 17 21 25 27 30 32 33 34 36 38 40 41 41 40 41 43 44 43 41 41 41 40 41 42 41 41 40 38 37 36 35 35 35 35 35 35 36 37 38 39
8 10 15 22 21 17 15 14 14 15 15 15 14 13 11 11 9 7 7 7 7 7 6 8 10 8 6 7 8 8 7 7 6 8 10 11 12 12 11 10 10 10 11 12 13 15 16 18 23 26 27 29 30 31 34 37 40 40 40 40 40 42 43 42 41 41 41 40 40 40 40 40 39 37 35 34 33 33 33 34 35 35 35 36 37 37 37
8 11 13 16 18 14 13 15 13 12 11 13 14 13 12 12 9 8 8 8 7 8 8 9 11 10 8 8 6 4 5 7 8 9 9 10 11 12 13 13 12 12 11 12 14 15 15 19 25 30 31 31 31 35 39 41 40 39 39 40 41 41 41 40 41 42 41 39 39 39 39 39 37 34 32 32 32 32 33 34 35 35 35 35 36 37 37
9 14 16 10 14 15 13 10 11 13 11 11 12 11 11 12 10 6 6 6 6 8 9 10 11 9 6 4 2 5 2 2 5 7 9 11 13 13 13 14 14 14 13 13 15 18 22 27 33 36 37 37 38 41 41 40 39 38 39 39 39 40 39 39 40 41 39 38 38 38 37 35 33 32 32 31 31 31 32 34 36 36 35 35 37 38 39
8 11 9 5 11 14 9 6 10 13 13 11 8 1 3 4 5 2 4 3 1 3 6 9 10 7 6 8 10 10 8 5 2 2 4 5 7 10 12 13 13 12 12 13 13 16 24 30 33 33 34 35 36 36 36 36 37 38 39 38 38 38 38 38 39 39 38 38 37 35 34 32 32 32 32 31 31 32 34 35 36 37 37 38 38 38 39
6 6 3 5 8 5 1 5 9 8 9 11 9 6 8 8 4 2 7 7 4 3 1 3 7 9 9 10 9 8 8 7 5 3 2 4 5 7 10 13 15 15 14 14 14 17 23 28 30 30 33 35 34 33 34 35 36 38 38 37 37 37 36 38 39 39 39 38 36 33 32 32 33 33 33 33 34 35 35 35 36 37 38 39 39 38 38
4 4 4 4 5 3 1 3 6 5 7 9 9 5 3 6 6 1 6 8 6 5 3 3 3 5 8 9 8 9 10 8 5 3 2 5 6 7 8 10 13 18 21 22 22 24 25 26 27 30 33 35 34 33 34 34 35 37 36 35 35 36 36 38 39 40 40 38 35 33 33 34 35 35 35 36 37 38 36 35 36 38 39 39 39 39 38
2 3 5 3 4 5 2 6 5 1 7 11 12 8 1 5 7 5 2 6 5 5 5 3 4 2 8 6 5 8 10 9 7 6 4 5 6 5 6 9 10 13 19 25 29 32 30 28 32 34 35 35 33 30 31 32 34 34 33 34 35 35 37 39 39 40 40 39 36 34 35 37 37 37 37 39 40 41 39 38 38 39 40 39 38 38 38
3 2 4 4 3 2 6 13 14 9 3 11 14 9 2 4 6 6 2 6 4 3 6 6 5 5 5 0 5 6 8 7 6 6 6 7 8 8 6 5 7 12 17 21 24 25 23 25 31 33 31 30 28 26 28 32 32 31 32 35 37 37 39 40 40 40 40 40 38 37 38 39 38 39 40 41 41 41 40 39 38 38 38 36 36 37 38
3 3 3 3 2 2 10 16 17 16 8 5 11 6 4 3 4 4 2 7 4 2 5 7 8 7 4 4 5 6 7 6 5 6 6 6 6 7 9 12 12 11 17 18 16 16 19 25 32 34 32 29 25 26 29 30 29 30 34 39 42 44 43 41 39 40 40 40 40 39 39 40 40 41 41 40 39 40 39 39 38 37 37 36 35 36 36
4 4 4 3 1 2 11 17 17 17 10 3 7 5 6 3 1 2 4 7 5 4 6 7 6 4 3 3 1 5 7 7 7 6 5 4 5 5 7 12 16 12 10 12 12 12 13 18 23 26 30 30 29 31 32 29 31 38 43 45 46 45 43 39 38 40 40 42 42 42 41 40 39 40 40 39 39 40 39 38 37 35 35 34 33 33 32
3 3 3 3 1 2 14 22 19 12 5 3 5 4 3 4 3 3 6 6 6 7 9 7 6 5 4 4 3 4 6 7 7 9 9 8 8 10 10 13 17 14 6 2 1 1 2 1 5 10 16 19 20 23 23 23 30 37 40 42 45 44 41 38 38 40 40 42 42 41 40 39 38 38 38 39 40 41 39 38 37 35 34 32 30 28 28
1 2 3 2 1 4 17 21 15 9 6 0 3 5 4 4 5 5 6 6 6 7 8 7 6 6 5 5 4 4 6 7 7 9 10 9 9 10 11 13 15 12 8 8 10 10 10 7 5 4 8 9 8 8 7 10 17 21 22 27 32 33 33 33 34 37 39 40 40 39 39 39 39 38 38 38 37 36 34 32 28 26 26 26 26 25 25
1 0 1 1 2 8 13 11 6 6 7 4 3 6 5 4 5 5 5 6 6 6 7 7 7 6 6 6 6 6 7 7 8 8 9 9 9 9 8 11 13 10 6 6 8 11 12 12 11 9 9 9 7 5 3 6 13 16 18 21 24 24 25 25 27 29 31 33 33 32 34 36 36 34 32 29 26 25 24 23 20 18 20 22 23 24 24
1 1 2 3 4 6 8 6 5 7 10 9 5 4 7 5 3 3 5 5 5 5 7 8 7 7 7 7 7 8 7 7 7 8 8 9 9 9 9 11 13 11 7 6 8 9 10 11 13 13 13 14 13 9 6 5 10 15 18 20 22 22 23 23 23 24 26 28 28 29 30 32 31 28 26 24 24 24 25 25 24 24 25 24 22 23 22
1 2 3 4 4 5 6 6 7 8 10 10 7 4 6 6 4 4 6 6 5 4 6 8 7 5 5 6 7 7 7 7 7 7 7 7 8 8 8 11 13 11 9 8 9 10 10 9 10 12 14 15 14 10 8 7 6 10 16 21 23 24 24 24 26 27 27 26 27 29 31 31 30 31 32 31 30 27 25 24 24 22 21 21 21 21 22
1 2 1 4 4 5 6 8 9 11 11 10 9 7 4 5 6 7 6 7 7 5 6 8 8 6 5 6 6 6 6 7 8 7 7 7 8 8 9 10 10 9 8 7 7 8 8 8 8 9 11 14 17 17 14 10 9 13 18 23 26 29 31 32 32 33 34 34 33 33 34 36 35 34 33 31 28 25 25 25 22 18 18 21 22 21 22
1 1 2 5 4 2 7 9 8 9 10 10 10 9 7 5 6 8 7 6 7 6 6 7 8 7 6 6 6 5 6 6 6 6 6 6 7 8 11 12 10 8 6 5 5 5 6 8 10 12 13 13 15 17 18 21 24 25 24 22 21 21 25 30 34 35 36 38 38 36 36 37 36 33 31 30 30 31 32 31 28 25 24 24 24 24 25
1 1 4 6 5 4 9 11 8 8 8 8 10 10 9 9 7 7 9 8 6 7 7 6 7 9 7 6 6 6 6 6 6 6 5 5 6 7 9 11 11 8 5 4 5 6 7 8 11 14 16 16 18 21 24 28 31 30 26 24 22 18 14 15 21 31 38 40 39 39 39 37 33 30 31 34 34 32 31 32 33 33 30 27 27 29 30
0 2 3 4 3 2 5 7 8 8 7 7 9 10 10 10 9 6 9 9 8 9 8 6 8 9 7 6 7 7 7 7 7 6 6 6 6 8 10 10 10 9 7 5 6 7 7 7 9 12 15 17 19 23 26 29 31 30 28 26 25 23 18 9 6 15 28 36 36 36 38 37 32 28 27 29 32 29 27 28 31 33 32 30 31 32 32
2 2 2 0 1 1 3 4 5 6 6 7 9 9 9 9 8 7 7 8 9 9 8 7 8 9 7 7 7 8 8 7 7 7 8 8 7 9 11 10 9 9 9 7 8 8 7 5 6 7 9 11 14 19 23 27 30 31 30 26 21 19 22 19 8 4 11 25 29 29 31 32 33 32 29 27 27 29 29 28 28 29 29 29 30 31 32
2 1 2 1 2 2 2 4 4 5 5 7 9 8 8 7 6 6 7 8 7 7 7 8 7 7 7 7 7 8 8 8 7 8 10 11 11 11 11 11 9 9 10 9 9 10 10 8 4 2 4 6 9 13 18 22 25 27 27 24 20 18 21 25 22 17 19 22 22 26 30 32 33 34 33 30 26 25 28 29 29 28 27 26 27 29 30
2 0 1 0 1 3 1 3 4 4 6 7 7 7 7 6 5 5 7 7 6 6 7 7 7 7 8 7 7 8 8 7 9 10 11 13 14 13 12 12 11 11 11 11 10 10 12 14 9 1 2 2 5 10 13 17 20 21 20 20 21 21 23 24 23 24 25 22 17 21 28 31 31 31 32 29 25 24 24 25 25 25 24 23 23 25 26
3 2 1 0 2 3 2 2 4 5 6 7 7 6 5 5 5 5 6 6 5 6 6 6 6 8 9 8 7 8 8 8 11 13 11 11 12 12 11 12 13 13 14 14 13 9 7 9 11 9 5 5 7 9 11 15 17 17 18 20 21 23 27 29 26 26 28 26 20 20 26 29 28 28 28 29 30 29 27 23 21 21 21 21 21 22 24
4 4 4 5 5 3 2 3 3 3 5 6 6 5 2 4 4 4 5 6 6 6 6 6 6 7 9 9 9 9 9 10 11 11 10 9 11 12 13 14 16 16 16 15 14 10 7 10 14 12 7 6 8 7 7 11 16 18 18 19 20 21 25 30 31 30 30 28 25 25 27 27 26 26 27 30 32 32 29 26 23 22 21 20 21 22 23
3 4 4 6 7 6 4 4 4 4 5 5 5 4 3 3 3 4 6 6 6 5 6 7 8 7 7 8 8 8 9 10 9 8 8 10 13 16 15 14 15 16 16 15 15 14 12 13 14 10 5 6 11 11 6 5 12 20 23 22 21 22 22 25 29 30 30 28 26 25 26 27 27 28 29 29 29 28 27 27 26 24 21 20 20 20 21
2 3 3 6 8 7 6 6 6 7 7 6 6 6 5 4 3 5 6 5 5 5 5 7 8 7 6 6 6 7 7 7 7 8 9 11 15 18 17 15 17 20 20 17 15 13 11 11 11 7 3 5 11 15 14 8 9 18 25 25 23 23 23 24 27 29 29 28 27 26 26 28 28 29 27 26 26 26 27 27 26 24 23 22 21 20 20
4 5 5 6 8 8 8 8 7 7 7 7 7 6 5 4 3 4 5 5 5 5 5 5 6 7 6 5 5 6 6 6 7 9 11 13 16 18 20 19 18 18 17 16 15 16 15 13 9 4 2 3 6 11 16 13 8 12 21 25 23 23 25 26 29 29 28 28 29 29 28 28 27 27 26 25 25 26 27 27 27 26 24 23 23 23 22
6 7 6 6 8 8 8 8 7 7 7 7 6 6 5 4 4 4 5 5 4 4 5 5 6 6 5 5 6 8 8 8 9 11 13 16 17 18 21 21 16 11 10 13 16 17 14 11 8 7 4 1 2 5 13 13 2 3 6 16 20 23 27 28 28 29 28 28 28 28 26 26 27 27 27 27 25 25 25 26 26 25 24 24 23 24 25
8 10 6 4 6 7 6 6 7 8 7 6 6 5 4 3 3 4 4 4 4 4 5 5 5 5 6 7 9 9 9 9 10 11 12 15 17 18 20 20 18 16 16 17 16 14 11 11 12 11 6 3 3 3 9 11 6 7 5 11 16 23 29 31 30 30 30 29 28 27 26 26 26 26 26 26 25 25 26 25 23 23 24 24 24 25 26
9 10 5 3 4 6 5 4 6 8 7 5 4 3 3 3 3 3 3 3 4 4 4 4 5 7 9 10 9 9 9 9 10 10 10 12 15 18 20 21 22 22 21 19 19 18 18 18 17 14 9 7 8 7 9 10 8 7 8 10 12 17 24 27 27 27 27 27 26 26 26 26 26 26 26 26 25 25 26 25 23 23 24 25 26 26 26
9 10 5 3 4 6 5 4 4 6 6 4 2 2 3 4 4 4 3 3 4 4 5 6 7 9 11 11 10 10 9 8 6 6 8 10 13 16 19 21 24 25 25 24 23 21 19 19 17 13 9 9 9 11 12 13 11 9 9 9 11 15 18 21 21 21 22 23 25 25 25 25 26 27 27 26 25 25 26 25 24 23 23 23 25 26 27
9 9 6 4 4 6 7 6 5 6 6 4 2 2 3 3 3 4 4 4 4 6 8 10 12 13 13 11 10 9 8 7 6 7 9 12 15 17 19 20 20 22 24 26 24 19 16 16 17 15 10 8 9 11 12 15 16 14 10 11 14 14 16 18 19 18 16 17 20 22 22 22 24 26 25 24 24 25 26 24 23 23 23 23 24 26 28
8 7 6 4 5 7 8 7 7 8 7 5 3 3 3 3 4 5 7 8 9 10 11 13 14 12 10 9 9 9 9 10 11 11 12 14 17 20 21 19 17 17 18 20 20 17 14 13 14 15 14 14 14 13 12 12 13 11 8 10 12 12 14 17 18 16 15 15 15 17 18 19 20 22 24 24 25 25 24 24 23 23 24 24 24 25 27
7 7 5 4 4 6 7 7 7 8 6 5 5 5 4 4 6 8 11 12 12 12 12 13 11 9 8 10 12 13 13 14 14 15 15 16 19 21 20 18 16 14 11 11 14 16 12 9 11 14 17 17 17 15 12 11 11 10 10 12 15 15 15 15 16 16 16 17 16 14 15 17 18 19 21 23 24 24 24 24 24 23 23 23 23 25 27
8 8 7 6 5 7 8 8 8 8 6 6 6 6 6 6 8 11 13 13 13 13 14 14 12 11 12 14 14 14 15 16 16 17 18 18 19 20 17 15 14 13 10 9 13 16 15 12 13 16 18 19 19 18 14 9 9 11 12 13 15 16 15 13 11 9 10 14 17 17 19 21 21 19 19 20 22 23 24 24 23 22 22 22 22 24 27
7 7 7 7 7 6 7 9 9 8 6 6 7 7 8 8 10 12 13 14 15 15 15 15 14 14 13 12 11 12 15 17 17 17 18 19 19 19 18 17 18 18 16 16 17 17 16 15 14 14 14 14 15 18 18 15 11 10 8 9 11 14 15 15 13 10 10 14 17 18 20 22 22 21 21 21 22 22 23 22 22 22 22 22 23 24 25
7 7 7 7 6 4 4 5 6 7 10 10 9 8 7 8 10 12 13 13 15 16 17 16 14 12 11 9 8 10 15 18 18 17 18 19 19 17 15 17 20 21 20 21 21 20 19 19 17 14 12 11 10 11 14 17 18 17 15 12 10 10 11 14 15 14 14 15 17 19 20 20 20 21 23 23 23 21 21 21 21 21 21 22 22 22 23
8 6 5 5 5 4 4 6 7 9 12 13 12 12 12 12 11 11 11 11 14 16 18 17 14 12 11 12 12 13 16 19 20 20 20 18 15 11 8 11 16 19 19 20 21 20 21 22 21 18 15 13 10 7 8 10 14 16 18 17 15 14 13 13 13 12 11 11 13 16 17 17 17 18 19 20 20 21 21 21 21 20 20 21 20 20 21
5 3 3 4 4 4 6 7 7 8 11 13 15 17 17 16 14 13 12 14 16 17 17 17 17 16 16 17 16 16 17 19 20 21 21 18 14 10 7 9 15 18 19 19 20 20 21 23 25 23 19 16 11 7 6 7 8 10 11 12 12 12 14 16 16 14 13 13 13 11 11 13 14 15 15 17 18 20 21 21 21 20 20 20 18 17 18
5 5 5 5 5 7 9 9 9 8 9 12 15 16 15 14 14 14 14 15 16 16 16 17 18 17 18 18 16 14 15 16 18 19 20 20 20 17 13 11 14 18 19 20 22 23 23 24 25 25 25 24 21 15 10 6 5 6 7 9 9 8 7 9 10 10 9 10 9 7 6 7 10 13 15 17 19 21 22 22 22 21 20 19 18 18 18
8 7 6 7 8 11 12 12 11 9 9 12 17 19 18 17 17 17 17 17 17 17 18 18 18 18 19 20 17 13 13 14 16 16 15 15 18 21 20 16 15 17 19 20 21 23 25 26 26 25 25 27 28 27 23 17 10 6 4 5 5 4 2 3 6 8 9 8 5 2 1 2 4 8 10 11 12 14 16 18 20 22 21 20 19 19 19
12 14 15 15 14 14 14 13 13 13 14 17 21 23 23 22 22 22 21 21 20 19 20 19 19 19 20 20 20 20 21 22 22 21 15 9 9 17 23 21 16 14 16 18 20 21 24 27 28 28 27 27 27 28 29 27 23 19 13 7 4 4 3 3 5 7 7 7 7 6 5 3 3 5 7 8 9 10 10 12 16 19 21 20 20 20 20
17 20 21 19 17 17 18 20 22 23 23 20 18 18 21 24 25 24 24 22 21 21 22 23 22 21 20 21 21 23 26 28 29 30 26 20 17 21 26 25 19 15 15 18 21 23 25 27 28 29 28 28 27 27 27 27 26 25 22 18 14 14 14 12 8 3 2 5 8 8 7 6 6 7 8 8 9 9 10 12 14 15 16 17 18 19 20
19 20 21 21 20 22 24 26 26 24 20 14 9 11 18 23 24 23 24 25 25 25 26 27 27 26 27 26 24 22 21 22 24 26 29 29 28 29 31 31 28 25 24 25 26 27 27 27 29 29 27 27 27 27 26 25 24 24 23 22 19 17 17 17 15 12 8 2 5 7 8 6 6 6 6 8 9 11 13 14 14 15 15 16 17 20 22
19 18 20 23 24 25 26 26 21 16 12 11 12 14 18 22 22 22 22 23 25 26 27 28 29 29 30 30 29 26 24 21 17 18 24 29 31 30 31 32 32 31 31 31 31 31 29 29 29 29 29 28 28 28 27 27 25 24 23 22 20 18 17 17 16 15 14 10 6 5 6 6 5 5 6 7 8 9 11 11 12 14 16 19 21 23 24
20 21 22 24 24 23 22 19 14 10 12 15 17 19 21 23 23 21 19 19 22 24 25 26 27 27 29 30 30 30 30 27 22 20 24 29 30 30 30 31 31 32 33 33 32 32 32 31 30 30 30 30 30 29 28 28 27 25 23 22 20 19 18 17 16 14 13 12 11 9 8 7 6 6 6 8 9 10 11 11 11 13 16 19 20 20 21
21 21 20 19 19 19 19 16 12 12 16 19 19 20 22 21 18 17 17 18 19 21 22 24 24 25 27 29 29 30 31 32 30 29 29 30 30 29 29 29 29 31 32 33 33 33 33 33 33 32 32 31 31 30 29 28 28 27 25 23 21 20 19 17 16 15 13 12 10 10 10 9 8 7 5 6 10 12 14 13 13 13 13 14 15 16 17
20 18 17 17 18 20 21 20 19 19 21 22 22 22 23 20 17 17 18 17 17 18 19 20 21 23 25 27 28 29 30 30 31 31 31 31 31 31 31 30 30 31 31 31 31 30 31 31 32 32 32 32 31 30 29 28 28 28 27 25 22 21 20 19 17 16 15 13 12 12 12 11 10 8 7 5 5 8 9 10 9 9 9 10 10 12 13
19 19 19 20 20 21 23 25 26 25 23 22 22 23 23 21 20 20 20 18 16 16 17 17 17 20 24 26 27 28 29 29 29 29 29 30 31 32 32 31 31 31 32 31 30 29 28 28 29 29 29 30 31 30 30 29 28 27 27 26 24 22 21 20 19 18 17 15 14 14 15 15 14 12 11 10 7 5 5 7 7 7 7 7 8 9 10
Wind_Direction
241 213 208 212 207 200 202 205 204 197 197 199 203 210 192 148 190 231 204 176 206 228 240 242 230 229 241 224 197 209 226 197 168 161 174 193 208 211 205 200 192 185 184 185 184 185 184 185 186 186 188 191 191 192 193 192 193 195 195 197 199 199 200 203 205 205 205 205 206 207 208 210 212 214 215 214 213 212 210 210 210 209 209 208 207 207 208
275 226 209 212 216 210 202 209 206 197 197 199 204 212 195 178 210 218 172 188 217 214 220 236 238 235 242 238 193 184 217 212 169 158 172 186 199 206 205 202 195 188 188 187 184 183 182 182 184 186 188 190 191 193 193 192 194 195 195 197 199 200 202 205 207 206 205 205 206 207 207 209 212 213 214 214 213 212 211 210 210 209 209 208 208 208 209
299 245 214 209 218 216 207 211 210 204 203 200 204 211 201 195 218 208 167 195 230 239 228 237 244 236 236 243 202 181 202 216 184 166 171 179 188 195 198 199 197 193 189 186 182 179 180 183 184 185 188 190 192 193 192 193 196 196 196 197 199 201 204 207 207 205 205 205 205 206 208 210 211 212 213 213 213 212 211 210 210 209 208 208 209 210 211
307 278 231 214 216 220 215 211 208 204 204 204 205 205 196 195 201 187 179 205 237 246 235 239 246 234 210 214 201 184 201 212 187 175 175 175 175 174 177 183 188 191 186 179 180 181 183 185 184 186 188 188 191 192 193 196 198 197 197 198 200 203 206 206 205 206 206 205 205 207 208 209 211 211 211 212 211 211 210 210 210 209 209 209 210 211 212
291 301 284 235 214 217 227 217 199 188 198 210 212 209 202 194 173 163 195 213 217 213 205 214 230 228 214 213 204 191 215 213 195 180 176 177 175 171 171 173 176 182 181 176 180 184 185 185 187 188 188 187 191 194 195 197 197 196 198 200 202 205 206 205 205 207 206 205 205 206 207 208 209 208 209 210 210 209 209 210 210 209 209 209 210 212 212
276 290 303 271 217 213 225 209 170 172 191 201 205 215 218 210 197 188 204 213 209 208 201 199 211 219 208 189 72 41 25 245 223 202 187 184 182 178 176 177 180 182 182 183 185 187 189 189 190 191 191 191 195 196 196 196 195 195 199 201 203 205 205 204 205 207 207 206 206 206 206 205 204 204 206 207 207 208 209 210 209 208 208 209 211 212 213
272 286 302 268 225 219 213 171 158 176 184 168 153 90 341 269 233 180 103 97 186 215 205 192 184 166 119 86 59 43 38 29 3 261 237 219 198 186 180 178 181 184 186 189 189 191 193 193 194 193 194 195 197 197 196 194 194 197 200 202 203 205 205 204 205 206 206 207 207 205 203 200 199 201 203 203 204 207 209 210 209 208 208 209 211 213 214
268 281 270 226 235 246 163 159 173 172 161 147 124 60 7 348 334 112 120 125 129 100 86 201 171 147 113 76 48 29 23 21 31 44 323 280 243 213 199 188 182 184 190 192 192 197 199 197 196 195 196 197 196 196 196 195 196 199 201 203 204 204 204 204 204 205 206 207 206 203 198 196 196 197 198 199 202 206 209 210 209 209 209 211 212 213 213
249 269 276 254 242 265 11 199 199 172 164 166 138 104 334 330 345 23 140 137 134 116 83 308 253 145 96 56 15 358 3 357 359 30 346 291 266 232 220 211 198 193 192 190 191 199 204 202 200 199 200 199 196 195 195 195 197 200 201 204 205 204 205 205 205 204 204 205 204 199 195 194 194 194 194 197 201 205 206 206 206 208 210 211 212 212 212
276 299 291 274 207 203 281 310 300 99 141 151 127 108 293 325 354 348 115 123 122 114 94 359 308 94 75 44 332 328 345 346 356 22 18 344 328 289 249 239 231 213 199 194 195 199 202 203 203 203 202 200 197 195 194 194 197 199 201 205 206 206 207 207 205 204 204 203 202 197 194 194 193 192 193 197 201 203 204 203 204 207 209 209 211 211 211
345 343 267 243 177 155 341 335 331 342 88 122 105 93 267 305 350 340 39 94 80 87 92 64 47 77 82 17 277 310 330 333 355 19 23 19 9 350 331 300 265 238 217 208 205 201 198 201 205 206 204 201 198 197 196 196 197 198 201 204 206 208 210 209 206 204 203 202 201 197 196 195 193 192 194 198 200 201 202 203 203 205 206 206 207 209 212
337 334 274 260 126 44 341 338 329 318 307 118 107 118 219 257 325 316 77 87 70 80 101 80 67 81 123 201 261 310 323 324 357 25 22 15 12 358 353 351 331 274 233 219 212 204 203 206 205 202 199 198 200 202 201 198 198 200 202 205 207 209 210 209 206 204 202 201 201 199 198 196 193 193 195 197 197 198 199 201 201 202 202 203 204 207 209
327 305 274 296 81 34 343 334 319 308 304 144 136 176 207 196 272 311 62 76 66 61 77 81 82 91 114 134 317 330 340 346 354 7 11 14 20 11 357 359 356 331 260 229 218 213 215 216 212 206 200 197 198 202 202 198 199 203 204 204 207 210 210 207 205 204 202 201 201 200 199 196 193 193 195 195 195 195 195 197 198 198 199 199 201 203 204
322 283 271 305 256 31 353 335 317 316 334 170 172 176 163 138 111 39 47 61 66 66 69 77 89 89 74 67 53 8 4 4 352 353 4 13 14 7 4 8 9 7 9 37 65 28 14 242 224 216 210 208 208 207 206 207 209 208 206 206 207 208 207 205 203 203 202 201 201 200 198 195 191 191 193 194 194 193 193 193 193 193 194 193 194 195 197
328 295 311 350 252 325 346 338 329 351 17 29 143 105 96 86 73 60 50 44 48 69 79 77 75 74 60 49 46 34 26 20 9 3 7 9 3 360 4 8 8 12 37 59 63 64 65 72 84 134 177 194 207 207 209 224 222 215 211 212 212 211 208 204 202 202 202 200 199 197 194 192 189 188 190 192 191 190 189 186 182 182 185 185 184 184 186
90 355 322 6 273 304 329 332 319 342 360 4 85 100 94 65 59 71 67 48 44 68 86 79 64 55 45 30 25 31 32 24 16 9 7 9 5 357 357 3 7 17 44 63 66 75 82 87 87 91 103 106 102 106 132 199 208 204 203 207 210 211 209 205 202 201 198 197 197 194 190 188 186 183 182 180 178 178 170 158 156 170 183 186 184 181 178
147 160 238 270 286 300 313 317 315 345 11 17 17 87 100 85 61 77 85 74 59 64 80 79 63 48 39 25 19 23 23 17 16 11 8 10 6 359 360 4 9 21 48 67 67 68 72 92 112 119 113 99 83 64 65 130 175 183 185 186 187 188 190 190 188 186 184 184 184 182 180 180 175 167 163 157 153 152 150 152 169 186 190 189 187 180 172
212 187 227 277 326 332 330 344 359 12 26 22 3 33 89 97 97 93 96 98 85 73 86 89 78 60 47 39 29 21 15 12 9 5 6 9 4 3 7 8 12 26 44 58 70 70 60 65 98 123 134 132 123 115 107 105 131 162 168 166 164 164 167 169 169 167 164 162 163 164 164 162 158 152 149 145 143 144 154 171 185 189 185 185 184 174 166
243 178 233 329 337 349 2 12 16 16 20 22 16 15 41 86 98 95 94 102 104 97 91 93 93 87 73 60 47 28 20 17 7 359 1 4 3 6 8 12 23 41 51 51 62 72 69 70 85 106 129 143 150 161 172 183 185 177 170 166 162 160 162 163 162 162 158 152 149 147 144 142 141 140 142 146 150 159 172 179 178 177 184 186 178 165 161
229 178 19 339 300 337 25 24 22 19 15 15 23 21 7 20 70 87 83 84 96 93 83 88 94 85 68 61 58 46 35 26 13 5 2 359 2 7 8 14 28 48 65 75 78 76 77 88 97 104 112 127 144 157 164 169 169 163 156 153 150 151 157 161 160 158 155 149 144 140 137 139 141 144 153 164 171 177 182 181 175 176 184 182 171 164 163
279 222 23 355 317 341 16 17 19 23 17 15 25 29 18 4 19 66 75 68 70 74 68 67 76 72 56 42 47 50 44 35 26 19 14 14 17 13 7 12 23 35 53 80 90 94 107 114 116 119 124 132 143 149 150 153 154 148 140 136 133 130 136 149 157 158 155 151 146 142 141 144 149 154 163 170 172 176 182 183 179 178 179 174 169 168 167
212 135 58 14 346 336 348 359 15 16 14 29 35 33 29 12 353 16 60 65 60 59 56 52 65 69 54 34 41 50 45 36 28 21 18 21 22 17 17 21 28 36 48 65 69 76 97 116 119 125 134 140 146 149 151 152 147 140 136 135 136 139 139 141 202 188 161 147 141 139 139 140 139 139 146 159 167 170 171 171 175 179 179 177 176 175 174
189 137 111 79 130 162 290 327 20 21 13 34 41 34 33 22 351 350 32 54 53 51 46 42 55 64 55 39 43 50 43 33 28 25 22 21 21 19 22 29 33 35 41 50 52 55 73 104 115 118 126 137 145 146 146 147 144 140 140 138 137 141 142 140 160 201 119 113 116 121 125 126 125 121 120 130 147 157 159 160 166 173 179 184 185 184 183
243 123 110 122 125 125 290 317 8 37 37 43 43 33 27 19 356 358 25 41 46 52 50 42 43 54 57 48 45 50 46 31 26 29 26 25 28 27 26 29 30 29 29 29 31 38 44 45 49 93 112 124 144 148 146 146 144 141 141 139 133 133 135 134 135 126 107 105 116 124 124 126 127 126 123 120 124 137 149 158 165 172 179 185 187 188 189
246 239 71 33 144 135 115 332 352 30 54 65 59 37 19 6 358 13 32 36 33 38 49 47 36 38 49 52 45 47 47 32 26 32 32 29 29 28 27 26 25 30 34 33 33 36 32 28 30 67 193 184 163 152 146 147 146 145 144 140 134 134 134 132 131 128 124 125 135 137 134 135 136 135 133 130 125 123 131 146 161 171 177 179 179 183 188
257 267 285 212 139 119 82 43 20 14 31 62 73 54 19 356 359 25 38 36 30 34 43 45 35 34 42 48 46 45 46 37 31 31 33 33 29 23 21 21 23 34 45 45 46 50 45 49 70 99 142 196 198 182 164 158 156 150 144 141 140 140 140 136 132 131 133 138 147 145 139 138 139 140 140 139 136 131 129 135 145 156 165 172 176 179 183
256 233 207 165 141 118 83 97 91 38 30 53 69 67 19 328 343 31 46 37 32 35 36 32 34 40 41 41 43 46 45 41 36 31 30 33 30 25 25 26 30 40 50 51 46 41 37 53 66 72 86 133 163 182 182 169 160 147 137 136 138 139 141 140 137 135 138 143 148 147 142 141 142 144 144 143 142 141 142 143 142 143 151 161 168 172 175
232 208 188 160 148 142 129 116 105 83 62 52 51 51 18 331 347 48 59 42 24 21 26 27 30 41 45 41 43 48 45 40 38 32 24 25 29 32 36 41 42 46 49 48 44 34 26 45 63 64 62 110 132 142 148 163 155 144 138 139 140 138 138 138 136 135 138 142 146 147 146 145 145 144 144 144 144 144 145 146 145 144 146 151 156 161 167
128 123 117 124 129 129 115 94 76 65 57 45 39 37 16 347 6 49 49 30 10 4 10 16 23 37 49 47 49 55 50 43 40 31 23 26 32 35 39 47 51 47 40 37 41 40 34 48 75 96 116 130 140 146 150 157 161 151 147 147 145 142 142 140 137 136 140 143 146 148 147 146 146 146 143 141 142 143 144 145 147 148 149 150 152 155 160
90 86 90 106 110 107 100 90 77 68 60 48 42 37 15 351 12 47 40 23 12 4 355 359 18 36 42 43 53 62 61 58 53 39 29 29 34 38 42 45 47 44 34 22 23 31 35 39 46 51 78 103 129 147 150 156 174 169 159 156 151 147 147 147 144 143 145 146 148 150 150 149 148 146 144 144 146 148 148 150 153 155 155 154 154 156 158
97 82 77 96 102 99 96 93 85 73 62 51 43 35 15 356 13 36 33 22 11 356 352 2 17 24 23 36 58 62 59 56 54 45 36 32 32 40 48 52 52 51 46 37 31 28 31 37 27 5 4 55 192 160 144 141 151 311 154 148 147 147 149 150 149 148 148 149 150 149 148 149 150 150 150 151 152 153 154 155 159 161 161 159 159 161 162
106 86 64 72 97 96 90 92 90 78 62 50 45 32 1 344 5 22 23 17 5 354 359 7 8 9 22 44 60 61 53 46 45 46 42 34 30 36 48 56 58 54 53 55 53 43 33 33 35 36 56 126 179 157 131 123 79 22 67 126 139 147 152 154 155 155 153 153 153 152 152 153 155 156 156 157 158 159 160 161 164 167 166 164 165 169 170
104 91 62 25 80 90 78 69 85 84 70 48 34 9 329 318 333 344 354 8 8 2 2 358 358 18 37 49 53 52 48 42 39 40 38 34 36 43 49 53 54 51 48 49 53 51 44 39 39 44 58 82 96 121 153 154 130 115 140 149 141 140 145 148 150 151 150 150 153 156 158 159 159 160 163 164 164 164 165 167 170 171 171 173 175 178 179
88 90 70 14 51 85 85 70 81 91 83 60 29 344 314 306 310 319 344 8 8 6 9 8 13 30 43 48 46 44 45 42 36 32 31 33 41 49 51 50 51 50 47 43 43 45 47 47 49 48 36 38 73 116 154 169 165 162 165 145 115 112 123 131 135 138 141 146 153 158 160 161 163 167 169 167 165 166 168 172 175 174 175 179 181 182 184
70 75 69 42 44 71 84 82 81 84 81 71 52 360 321 310 319 344 11 23 20 26 39 46 47 48 49 48 45 42 41 40 38 37 38 41 45 49 49 47 47 49 49 44 39 38 42 48 54 59 57 53 72 103 131 152 164 170 155 119 104 104 109 114 118 120 123 134 145 152 156 159 164 169 169 166 166 170 173 176 178 178 178 180 183 184 185
61 64 64 55 58 73 79 78 78 80 79 74 61 33 12 9 17 27 40 45 45 49 59 62 60 56 51 50 52 50 46 43 41 38 37 42 51 56 54 47 42 46 50 47 42 40 40 40 47 60 71 70 68 76 97 126 149 160 145 120 118 119 115 115 119 123 127 137 148 156 163 166 168 169 170 170 172 175 177 177 179 180 179 180 181 183 184
60 63 54 27 39 70 72 69 77 83 79 70 64 53 39 32 38 47 53 52 51 56 63 64 62 58 56 58 59 56 53 51 50 46 42 44 50 55 53 46 42 44 44 42 46 54 58 54 55 67 73 68 59 58 70 93 111 121 128 135 139 137 132 135 142 143 145 154 161 162 161 159 158 162 169 173 173 174 176 176 176 178 179 179 180 182 184
57 62 58 41 44 64 68 64 68 75 78 78 75 65 56 52 57 61 58 52 51 58 63 63 62 61 59 59 58 54 50 52 54 52 49 47 49 51 49 41 40 43 42 42 52 63 77 90 89 84 81 76 68 63 64 80 106 115 118 123 125 122 123 131 138 137 146 160 163 155 148 145 144 148 162 172 174 174 175 174 173 174 176 179 181 184 184
49 61 67 60 56 66 72 65 54 50 61 81 85 70 54 50 58 65 62 53 53 60 64 64 64 60 54 52 52 51 51 52 54 54 54 53 53 53 51 46 46 52 59 62 60 61 68 80 86 83 79 73 67 64 64 67 76 87 94 103 110 115 123 131 133 134 150 162 157 146 142 145 149 154 165 173 174 173 173 172 172 173 176 178 182 183 182
52 57 63 61 54 60 88 91 78 65 66 72 80 85 79 67 65 69 66 57 57 62 65 66 67 65 60 55 51 50 54 55 55 55 57 56 53 52 49 45 48 55 63 67 66 62 59 60 62 61 57 48 44 56 69 70 68 68 68 69 78 100 122 135 138 138 142 144 137 128 127 134 143 152 162 168 170 169 170 171 172 175 178 180 182 183 184
48 44 55 69 69 66 78 91 93 86 79 74 74 77 77 72 67 66 64 60 61 65 69 71 73 74 75 74 67 59 58 59 58 58 59 57 52 49 42 39 46 55 61 63 63 62 59 56 53 51 48 42 40 54 73 72 68 68 66 62 63 70 80 89 97 104 110 115 121 127 129 128 129 136 149 161 169 174 176 176 177 181 184 185 185 187 190
35 12 23 51 57 53 56 63 66 67 67 67 68 69 69 69 68 69 69 69 68 68 70 74 76 75 73 72 67 60 58 59 58 58 58 56 53 49 43 42 49 55 59 59 58 56 54 52 50 48 47 49 56 71 78 72 75 81 75 64 59 58 59 63 68 71 72 76 85 105 129 139 143 147 155 164 173 178 179 179 181 184 187 189 189 189 192
22 19 28 35 37 42 46 48 48 47 47 50 55 60 64 65 66 67 67 66 66 66 66 67 68 67 64 61 58 55 53 56 59 58 56 52 48 46 45 48 51 53 56 58 57 53 49 47 46 45 46 50 56 63 68 75 101 113 102 86 77 66 57 64 77 87 93 91 84 78 92 122 143 155 159 163 170 175 177 179 182 185 187 190 193 193 194
22 27 31 32 36 41 42 39 36 37 39 41 46 52 58 60 62 65 65 62 60 64 67 66 64 61 58 56 54 49 45 47 50 50 48 45 40 36 34 36 40 43 49 55 56 51 47 45 43 42 43 46 50 53 53 53 57 70 84 95 98 96 107 132 135 140 146 150 155 169 91 89 125 149 156 160 167 169 170 177 185 187 187 192 199 200 199
36 41 44 45 46 46 46 45 45 46 48 50 52 55 59 62 63 65 67 66 63 64 66 66 64 62 62 62 62 58 52 48 45 44 43 41 29 25 27 29 29 28 36 46 50 48 44 43 42 41 41 42 44 46 46 45 45 47 50 59 75 71 68 113 167 182 189 190 189 189 189 186 176 169 169 173 171 166 173 193 199 192 188 193 200 202 201
47 46 47 48 48 46 47 49 49 48 48 49 48 47 52 58 62 61 61 62 62 61 62 60 58 57 59 63 64 62 58 53 50 50 51 53 48 39 38 39 38 33 34 38 38 36 35 37 40 40 39 39 41 43 43 41 42 44 48 55 63 66 65 65 67 79 199 205 196 186 179 177 177 175 178 183 182 185 207 224 219 202 190 191 196 199 202
48 46 44 44 44 45 45 46 45 43 42 42 36 32 42 53 61 63 64 64 65 64 63 61 58 57 59 60 60 61 61 58 52 49 51 53 53 49 45 45 47 48 48 45 41 38 37 38 40 41 39 38 39 40 41 42 43 43 42 44 48 54 59 60 58 55 56 94 185 188 182 175 174 181 195 206 209 212 221 227 223 213 203 196 193 192 192
47 46 44 43 43 43 42 42 41 37 32 33 34 33 35 42 48 54 61 67 68 65 63 63 62 61 63 63 60 58 61 64 58 47 47 52 54 52 48 47 49 52 53 51 48 46 45 44 43 42 43 43 42 41 41 43 45 46 44 44 44 45 47 49 50 53 56 61 76 116 141 147 149 161 178 190 196 202 208 214 214 207 196 185 177 175 174
49 47 45 43 42 41 40 41 40 34 29 31 33 32 33 35 36 35 42 59 67 65 62 64 65 64 65 65 62 60 61 64 64 57 53 53 53 51 50 49 50 51 51 51 48 46 47 47 46 45 46 46 45 43 44 46 47 47 47 46 46 46 45 43 44 49 56 61 63 67 76 86 95 115 144 160 160 155 155 159 164 169 171 170 169 171 174
46 46 44 41 40 40 41 40 38 34 33 34 34 33 35 37 32 23 32 57 74 71 64 65 68 67 66 65 64 62 62 63 62 60 58 56 53 50 50 50 50 49 49 48 47 45 45 45 45 45 45 45 44 43 43 46 47 47 46 45 45 46 46 44 42 43 48 54 59 59 59 61 66 73 98 147 162 160 156 155 159 165 171 176 180 184 187
47 46 44 42 42 44 45 43 41 39 38 38 37 35 36 37 34 28 35 57 78 80 71 67 67 67 66 66 64 62 63 62 59 57 56 54 52 51 51 50 49 47 44 43 43 42 41 41 41 41 42 43 43 42 43 44 44 43 42 41 41 41 43 45 46 48 50 52 56 59 61 67 73 73 71 88 141 167 173 177 180 183 185 189 191 192 193
52 50 48 45 43 43 42 40 37 36 37 40 41 40 39 38 37 33 33 42 58 71 76 75 68 64 65 67 67 65 64 61 58 57 55 53 51 51 51 50 48 46 43 41 42 41 39 37 37 38 39 40 40 41 42 43 43 41 39 38 38 39 41 43 47 51 54 57 59 60 62 67 74 78 77 76 83 114 161 178 182 183 188 193 196 194 193